INTELSAT 25 (IS-25) (33153 NORAD) Tracking and Keplerian Element Data

This shows tracking and keplerian element data for the satellite.

Feedback or suggestion? Click here.




ElementValue
Catalog33153
NameINTELSAT 25 (IS-25)
Epoch Orbit3676
Epoch Day201.25976662
Epoch Year2018
RAAN117.3211
Inclination0.0149
Eccentricity5.94E-05
Argument of Perigee8.9168
Mean Anonmoly233.7504
Mean Motion1.00272085
Decay Rate-2.4E-06
L11 33153U 08034A 18201.25976662 -.00000240 00000-0 00000-0 0 9992
L22 33153 0.0149 117.3211 0000594 8.9168 233.7504 1.00272085 36768

Live tracking and technical data element details for INTELSAT 25 (IS-25) (NORAD 33153). INTELSAT 25 (IS-25) can be tracked NOW for your location showing map with azimuth and elevation plus other details from your city location.

Track the satellite on the map from your city or location and see movement details for azimuth, elevation, latitude, longitude, range, height, and movement on the map or in text.







IsCatalogInMostPopularTable: catalog: 33153, numindb: 43
Update: records affected: 1



GetName: 33153 INTELSAT 25 (IS-25)

Hit Count: updated at: Sat, 21 Jul 2018 07:48:30 GMT